owner,sensor,date,latitude,longitude,vertical_datum,sea_water_practical_salinity,qcFlag 
SCCF RECON,ioos:station:SCCF:11:1,2015-03-01T00:00:00Z,26.4679,-82.0631,1.81,29.19,1111122 
SCCF RECON,ioos:station:SCCF:11:1,2015-03-01T01:00:00Z,26.4679,-82.0631,1.86,29.05,1111122 
SCCF RECON,ioos:station:SCCF:11:1,2015-03-01T02:00:00Z,26.4679,-82.0631,1.89,29.08,1111122 
SCCF RECON,ioos:station:SCCF:11:1,2015-03-01T03:00:00Z,26.4679,-82.0631,1.9,29.18,1111122 
SCCF RECON,ioos:station:SCCF:11:1,2015-03-01T04:00:00Z,26.4679,-82.0631,1.91,29.21,1111122 
SCCF RECON,ioos:station:SCCF:11:1,2015-03-01T05:00:00Z,26.4679,-82.0631,1.9,29.75,1111122 
SCCF RECON,ioos:station:SCCF:11:1,2015-03-01T06:00:00Z,26.4679,-82.0631,1.87,29.71,1111122 
SCCF RECON,ioos:station:SCCF:11:1,2015-03-01T07:00:00Z,26.4679,-82.0631,1.8,30.08,1111122 
SCCF RECON,ioos:station:SCCF:11:1,2015-03-01T08:00:00Z,26.4679,-82.0631,1.7,30.82,1111122 
SCCF RECON,ioos:station:SCCF:11:1,2015-03-01T09:00:00Z,26.4679,-82.0631,1.603,30.72,1111122 
SCCF RECON,ioos:station:SCCF:11:1,2015-03-01T10:00:00Z,26.4679,-82.0631,1.51,30.42,1111122 
SCCF RECON,ioos:station:SCCF:11:1,2015-03-01T11:00:00Z,26.4679,-82.0631,1.47,31.24,1111122 
SCCF RECON,ioos:station:SCCF:11:1,2015-03-01T12:00:00Z,26.4679,-82.0631,1.46,29.7,1111122 
SCCF RECON,ioos:station:SCCF:11:1,2015-03-01T13:00:00Z,26.4679,-82.0631,1.5,29.72,1111122 
SCCF RECON,ioos:station:SCCF:11:1,2015-03-01T14:00:00Z,26.4679,-82.0631,1.562,29.58,1111122 
SCCF RECON,ioos:station:SCCF:11:1,2015-03-01T15:00:00Z,26.4679,-82.0631,1.64,28.97,1111122 
SCCF RECON,ioos:station:SCCF:11:1,2015-03-01T16:00:00Z,26.4679,-82.0631,1.72,28.65,1111122 
SCCF RECON,ioos:station:SCCF:11:1,2015-03-01T17:00:00Z,26.4679,-82.0631,1.78,29.24,1111122 
SCCF RECON,ioos:station:SCCF:11:1,2015-03-01T18:00:00Z,26.4679,-82.0631,1.83,29.36,1111122 
SCCF RECON,ioos:station:SCCF:11:1,2015-03-01T19:00:00Z,26.4679,-82.0631,1.85,29.28,1111122 
SCCF RECON,ioos:station:SCCF:11:1,2015-03-01T20:00:00Z,26.4679,-82.0631,1.88,29.17,1111122 
SCCF RECON,ioos:station:SCCF:11:1,2015-03-01T21:00:00Z,26.4679,-82.0631,1.87,29.28,1111122 
SCCF RECON,ioos:station:SCCF:11:1,2015-03-01T22:00:00Z,26.4679,-82.0631,1.83,29.19,1111122 
SCCF RECON,ioos:station:SCCF:11:1,2015-03-01T23:00:00Z,26.4679,-82.0631,1.81,29.41,1111122 
SCCF RECON,ioos:station:SCCF:11:1,2015-03-02T00:00:00Z,26.4679,-82.0631,1.8,29.32,1111122 
SCCF RECON,ioos:station:SCCF:11:1,2015-03-02T01:00:00Z,26.4679,-82.0631,1.827,29.29,1111122 
SCCF RECON,ioos:station:SCCF:11:1,2015-03-02T02:00:00Z,26.4679,-82.0631,1.88,29.82,1111122 
SCCF RECON,ioos:station:SCCF:11:1,2015-03-02T03:00:00Z,26.4679,-82.0631,1.92,29.93,1111122 
SCCF RECON,ioos:station:SCCF:11:1,2015-03-02T04:00:00Z,26.4679,-82.0631,1.96,29.86,1111122 
SCCF RECON,ioos:station:SCCF:11:1,2015-03-02T05:00:00Z,26.4679,-82.0631,1.98,29.49,1111122 
SCCF RECON,ioos:station:SCCF:11:1,2015-03-02T06:00:00Z,26.4679,-82.0631,1.97,29.48,1111122 
SCCF RECON,ioos:station:SCCF:11:1,2015-03-02T07:00:00Z,26.4679,-82.0631,1.93,30.0,1111122 
SCCF RECON,ioos:station:SCCF:11:1,2015-03-02T08:00:00Z,26.4679,-82.0631,1.84,30.08,1111122 
SCCF RECON,ioos:station:SCCF:11:1,2015-03-02T09:00:00Z,26.4679,-82.0631,1.74,30.25,1111122 
SCCF RECON,ioos:station:SCCF:11:1,2015-03-02T10:00:00Z,26.4679,-82.0631,1.64,30.45,1111122 
SCCF RECON,ioos:station:SCCF:11:1,2015-03-02T11:00:00Z,26.4679,-82.0631,1.55,30.23,1111122 
SCCF RECON,ioos:station:SCCF:11:1,2015-03-02T12:00:00Z,26.4679,-82.0631,1.5,30.55,1111122 
SCCF RECON,ioos:station:SCCF:11:1,2015-03-02T13:00:00Z,26.4679,-82.0631,1.49,29.87,1111122 
SCCF RECON,ioos:station:SCCF:11:1,2015-03-02T14:00:00Z,26.4679,-82.0631,1.52,28.74,1111122 
SCCF RECON,ioos:station:SCCF:11:1,2015-03-02T15:00:00Z,26.4679,-82.0631,1.58,28.94,1111122 
SCCF RECON,ioos:station:SCCF:11:1,2015-03-02T16:00:00Z,26.4679,-82.0631,1.66,29.43,1111122 
SCCF RECON,ioos:station:SCCF:11:1,2015-03-02T17:00:00Z,26.4679,-82.0631,1.75,28.91,1111122 
SCCF RECON,ioos:station:SCCF:11:1,2015-03-02T18:00:00Z,26.4679,-82.0631,1.79,28.98,1111122 
SCCF RECON,ioos:station:SCCF:11:1,2015-03-02T19:00:00Z,26.4679,-82.0631,1.81,29.16,1111122 
SCCF RECON,ioos:station:SCCF:11:1,2015-03-02T20:00:00Z,26.4679,-82.0631,1.84,29.26,1111122 
SCCF RECON,ioos:station:SCCF:11:1,2015-03-02T21:00:00Z,26.4679,-82.0631,1.81,29.54,1111122 
SCCF RECON,ioos:station:SCCF:11:1,2015-03-02T22:00:00Z,26.4679,-82.0631,1.78,29.4,1111122 
SCCF RECON,ioos:station:SCCF:11:1,2015-03-02T23:00:00Z,26.4679,-82.0631,1.74,29.36,1111122 
SCCF RECON,ioos:station:SCCF:11:1,2015-03-03T00:00:00Z,26.4679,-82.0631,1.7,28.91,1111122 
SCCF RECON,ioos:station:SCCF:11:1,2015-03-03T01:00:00Z,26.4679,-82.0631,1.71,29.05,1111122 
SCCF RECON,ioos:station:SCCF:11:1,2015-03-03T02:00:00Z,26.4679,-82.0631,1.74,29.28,1111122 
SCCF RECON,ioos:station:SCCF:11:1,2015-03-03T03:00:00Z,26.4679,-82.0631,1.8,29.78,1111122 
SCCF RECON,ioos:station:SCCF:11:1,2015-03-03T04:00:00Z,26.4679,-82.0631,1.86,29.5,1111122 
SCCF RECON,ioos:station:SCCF:11:1,2015-03-03T05:00:00Z,26.4679,-82.0631,1.91,29.35,1111122 
SCCF RECON,ioos:station:SCCF:11:1,2015-03-03T06:00:00Z,26.4679,-82.0631,1.94,29.28,1111122 
SCCF RECON,ioos:station:SCCF:11:1,2015-03-03T07:00:00Z,26.4679,-82.0631,1.92,29.37,1111122 
SCCF RECON,ioos:station:SCCF:11:1,2015-03-03T08:00:00Z,26.4679,-82.0631,1.87,29.7,1111122 
SCCF RECON,ioos:station:SCCF:11:1,2015-03-03T09:00:00Z,26.4679,-82.0631,1.777,29.78,1111122 
SCCF RECON,ioos:station:SCCF:11:1,2015-03-03T10:00:00Z,26.4679,-82.0631,1.67,29.99,1111122 
SCCF RECON,ioos:station:SCCF:11:1,2015-03-03T11:00:00Z,26.4679,-82.0631,1.576,30.17,1111122 
SCCF RECON,ioos:station:SCCF:11:1,2015-03-03T12:00:00Z,26.4679,-82.0631,1.49,29.69,1111122 
SCCF RECON,ioos:station:SCCF:11:1,2015-03-03T13:00:00Z,26.4679,-82.0631,1.47,29.85,1111122 
SCCF RECON,ioos:station:SCCF:11:1,2015-03-03T14:00:00Z,26.4679,-82.0631,1.497,29.67,1111122 
SCCF RECON,ioos:station:SCCF:11:1,2015-03-03T15:00:00Z,26.4679,-82.0631,1.56,29.57,1111122 
SCCF RECON,ioos:station:SCCF:11:1,2015-03-03T16:00:00Z,26.4679,-82.0631,1.63,29.6,1111122 
SCCF RECON,ioos:station:SCCF:11:1,2015-03-03T17:00:00Z,26.4679,-82.0631,1.71,29.41,1111122 
SCCF RECON,ioos:station:SCCF:11:1,2015-03-03T18:00:00Z,26.4679,-82.0631,1.76,29.62,1111122 
SCCF RECON,ioos:station:SCCF:11:1,2015-03-03T19:00:00Z,26.4679,-82.0631,1.8,29.53,1111122 
SCCF RECON,ioos:station:SCCF:11:1,2015-03-03T20:00:00Z,26.4679,-82.0631,1.85,29.47,1111122 
SCCF RECON,ioos:station:SCCF:11:1,2015-03-03T21:00:00Z,26.4679,-82.0631,1.82,29.64,1111122 
SCCF RECON,ioos:station:SCCF:11:1,2015-03-03T22:00:00Z,26.4679,-82.0631,1.78,29.74,1111122 
SCCF RECON,ioos:station:SCCF:11:1,2015-03-03T23:00:00Z,26.4679,-82.0631,1.73,29.7,1111122 
SCCF RECON,ioos:station:SCCF:11:1,2015-03-04T00:00:00Z,26.4679,-82.0631,1.69,29.73,1111122 
SCCF RECON,ioos:station:SCCF:11:1,2015-03-04T01:00:00Z,26.4679,-82.0631,1.67,29.79,1111122 
SCCF RECON,ioos:station:SCCF:11:1,2015-03-04T02:00:00Z,26.4679,-82.0631,1.65,30.43,1111122 
SCCF RECON,ioos:station:SCCF:11:1,2015-03-04T03:00:00Z,26.4679,-82.0631,1.729,30.13,1111122 
SCCF RECON,ioos:station:SCCF:11:1,2015-03-04T04:00:00Z,26.4679,-82.0631,1.802,30.12,1111122 
SCCF RECON,ioos:station:SCCF:11:1,2015-03-04T05:00:00Z,26.4679,-82.0631,1.86,30.62,1111122 
SCCF RECON,ioos:station:SCCF:11:1,2015-03-04T06:00:00Z,26.4679,-82.0631,1.9,30.79,1111122 
SCCF RECON,ioos:station:SCCF:11:1,2015-03-04T07:00:00Z,26.4679,-82.0631,1.94,29.88,1111122 
SCCF RECON,ioos:station:SCCF:11:1,2015-03-04T08:00:00Z,26.4679,-82.0631,1.91,29.93,1111122 
SCCF RECON,ioos:station:SCCF:11:1,2015-03-04T09:00:00Z,26.4679,-82.0631,1.85,29.99,1111122 
SCCF RECON,ioos:station:SCCF:11:1,2015-03-04T10:00:00Z,26.4679,-82.0631,1.76,30.16,1111122 
SCCF RECON,ioos:station:SCCF:11:1,2015-03-04T11:00:00Z,26.4679,-82.0631,1.66,30.28,1111122 
SCCF RECON,ioos:station:SCCF:11:1,2015-03-04T12:00:00Z,26.4679,-82.0631,1.57,30.25,1111122 
SCCF RECON,ioos:station:SCCF:11:1,2015-03-04T13:00:00Z,26.4679,-82.0631,1.51,30.2,1111122 
SCCF RECON,ioos:station:SCCF:11:1,2015-03-04T14:00:00Z,26.4679,-82.0631,1.5,30.32,1111122 
SCCF RECON,ioos:station:SCCF:11:1,2015-03-04T15:00:00Z,26.4679,-82.0631,1.55,30.19,1111122 
SCCF RECON,ioos:station:SCCF:11:1,2015-03-04T16:00:00Z,26.4679,-82.0631,1.62,30.27,1111122 
SCCF RECON,ioos:station:SCCF:11:1,2015-03-04T17:00:00Z,26.4679,-82.0631,1.68,30.29,1111122 
SCCF RECON,ioos:station:SCCF:11:1,2015-03-04T18:00:00Z,26.4679,-82.0631,1.753,30.48,1111122 
SCCF RECON,ioos:station:SCCF:11:1,2015-03-04T19:00:00Z,26.4679,-82.0631,1.79,31.54,1111122 
SCCF RECON,ioos:station:SCCF:11:1,2015-03-04T20:00:00Z,26.4679,-82.0631,1.86,30.2,1111122 
SCCF RECON,ioos:station:SCCF:11:1,2015-03-04T21:00:00Z,26.4679,-82.0631,1.87,30.15,1111122 
SCCF RECON,ioos:station:SCCF:11:1,2015-03-04T22:00:00Z,26.4679,-82.0631,1.83,30.2,1111122 
SCCF RECON,ioos:station:SCCF:11:1,2015-03-04T23:00:00Z,26.4679,-82.0631,1.75,30.22,1111122 
SCCF RECON,ioos:station:SCCF:11:1,2015-03-05T00:00:00Z,26.4679,-82.0631,1.69,30.22,1111122 
SCCF RECON,ioos:station:SCCF:11:1,2015-03-05T01:00:00Z,26.4679,-82.0631,1.65,30.21,1111122 
SCCF RECON,ioos:station:SCCF:11:1,2015-03-05T02:00:00Z,26.4679,-82.0631,1.59,32.06,1111122 
SCCF RECON,ioos:station:SCCF:11:1,2015-03-05T03:00:00Z,26.4679,-82.0631,1.64,31.86,1111122 
SCCF RECON,ioos:station:SCCF:11:1,2015-03-05T04:00:00Z,26.4679,-82.0631,1.71,32.52,1111122 
SCCF RECON,ioos:station:SCCF:11:1,2015-03-05T05:00:00Z,26.4679,-82.0631,1.78,32.91,1111122 
SCCF RECON,ioos:station:SCCF:11:1,2015-03-05T06:00:00Z,26.4679,-82.0631,1.85,33.02,1111122 
SCCF RECON,ioos:station:SCCF:11:1,2015-03-05T07:00:00Z,26.4679,-82.0631,1.9,32.89,1111122 
SCCF RECON,ioos:station:SCCF:11:1,2015-03-05T08:00:00Z,26.4679,-82.0631,1.92,31.02,1111122 
SCCF RECON,ioos:station:SCCF:11:1,2015-03-05T09:00:00Z,26.4679,-82.0631,1.89,30.92,1111122 
SCCF RECON,ioos:station:SCCF:11:1,2015-03-05T10:00:00Z,26.4679,-82.0631,1.82,30.89,1111122 
SCCF RECON,ioos:station:SCCF:11:1,2015-03-05T11:00:00Z,26.4679,-82.0631,1.721,30.93,1111122 
SCCF RECON,ioos:station:SCCF:11:1,2015-03-05T12:00:00Z,26.4679,-82.0631,1.63,30.85,1111122 
SCCF RECON,ioos:station:SCCF:11:1,2015-03-05T13:00:00Z,26.4679,-82.0631,1.562,30.97,1111122 
SCCF RECON,ioos:station:SCCF:11:1,2015-03-05T14:00:00Z,26.4679,-82.0631,1.535,32.25,1111122 
SCCF RECON,ioos:station:SCCF:11:1,2015-03-05T15:00:00Z,26.4679,-82.0631,1.58,32.07,1111122 
SCCF RECON,ioos:station:SCCF:11:1,2015-03-05T16:00:00Z,26.4679,-82.0631,1.64,32.4,1111122 
SCCF RECON,ioos:station:SCCF:11:1,2015-03-05T17:00:00Z,26.4679,-82.0631,1.72,32.46,1111122 
SCCF RECON,ioos:station:SCCF:11:1,2015-03-05T18:00:00Z,26.4679,-82.0631,1.79,32.52,1111122 
SCCF RECON,ioos:station:SCCF:11:1,2015-03-05T19:00:00Z,26.4679,-82.0631,1.85,32.75,1111122 
SCCF RECON,ioos:station:SCCF:11:1,2015-03-05T20:00:00Z,26.4679,-82.0631,1.91,31.82,1111122 
SCCF RECON,ioos:station:SCCF:11:1,2015-03-05T21:00:00Z,26.4679,-82.0631,1.902,31.4,1111122 
SCCF RECON,ioos:station:SCCF:11:1,2015-03-05T22:00:00Z,26.4679,-82.0631,1.84,31.37,1111122 
SCCF RECON,ioos:station:SCCF:11:1,2015-03-05T23:00:00Z,26.4679,-82.0631,1.75,31.3,1111122 
SCCF RECON,ioos:station:SCCF:11:1,2015-03-06T00:00:00Z,26.4679,-82.0631,1.66,31.38,1111122 
SCCF RECON,ioos:station:SCCF:11:1,2015-03-06T01:00:00Z,26.4679,-82.0631,1.57,31.96,1111122 
SCCF RECON,ioos:station:SCCF:11:1,2015-03-06T02:00:00Z,26.4679,-82.0631,1.512,32.61,1111122 
SCCF RECON,ioos:station:SCCF:11:1,2015-03-06T03:00:00Z,26.4679,-82.0631,1.52,32.68,1111122 
SCCF RECON,ioos:station:SCCF:11:1,2015-03-06T04:00:00Z,26.4679,-82.0631,1.61,31.85,1111122 
SCCF RECON,ioos:station:SCCF:11:1,2015-03-06T05:00:00Z,26.4679,-82.0631,1.67,32.11,1111122 
SCCF RECON,ioos:station:SCCF:11:1,2015-03-06T06:00:00Z,26.4679,-82.0631,1.73,32.45,1111122 
SCCF RECON,ioos:station:SCCF:11:1,2015-03-06T07:00:00Z,26.4679,-82.0631,1.79,32.2,1111122 
SCCF RECON,ioos:station:SCCF:11:1,2015-03-06T08:00:00Z,26.4679,-82.0631,1.81,31.76,1111122 
SCCF RECON,ioos:station:SCCF:11:1,2015-03-06T09:00:00Z,26.4679,-82.0631,1.8,31.71,1111122 
SCCF RECON,ioos:station:SCCF:11:1,2015-03-06T10:00:00Z,26.4679,-82.0631,1.75,31.63,1111122 
SCCF RECON,ioos:station:SCCF:11:1,2015-03-06T11:00:00Z,26.4679,-82.0631,1.68,31.54,1111122 
SCCF RECON,ioos:station:SCCF:11:1,2015-03-06T12:00:00Z,26.4679,-82.0631,1.61,31.47,1111122 
SCCF RECON,ioos:station:SCCF:11:1,2015-03-06T13:00:00Z,26.4679,-82.0631,1.55,31.4,1111122 
SCCF RECON,ioos:station:SCCF:11:1,2015-03-06T14:00:00Z,26.4679,-82.0631,1.5,31.61,1111122 
SCCF RECON,ioos:station:SCCF:11:1,2015-03-06T15:00:00Z,26.4679,-82.0631,1.52,31.94,1111122 
SCCF RECON,ioos:station:SCCF:11:1,2015-03-06T16:00:00Z,26.4679,-82.0631,1.58,31.48,1111122 
SCCF RECON,ioos:station:SCCF:11:1,2015-03-06T17:00:00Z,26.4679,-82.0631,1.67,31.49,1111122 
SCCF RECON,ioos:station:SCCF:11:1,2015-03-06T18:00:00Z,26.4679,-82.0631,1.76,31.12,1111122 
SCCF RECON,ioos:station:SCCF:11:1,2015-03-06T19:00:00Z,26.4679,-82.0631,1.84,31.28,1111122 
SCCF RECON,ioos:station:SCCF:11:1,2015-03-06T20:00:00Z,26.4679,-82.0631,1.89,31.11,1111122 
SCCF RECON,ioos:station:SCCF:11:1,2015-03-06T21:00:00Z,26.4679,-82.0631,1.92,31.47,1111122 
SCCF RECON,ioos:station:SCCF:11:1,2015-03-06T22:00:00Z,26.4679,-82.0631,1.88,31.51,1111122 
SCCF RECON,ioos:station:SCCF:11:1,2015-03-06T23:00:00Z,26.4679,-82.0631,1.8,31.5,1111122 
SCCF RECON,ioos:station:SCCF:11:1,2015-03-07T00:00:00Z,26.4679,-82.0631,1.72,31.5,1111122 
SCCF RECON,ioos:station:SCCF:11:1,2015-03-07T01:00:00Z,26.4679,-82.0631,1.64,31.47,1111122 
SCCF RECON,ioos:station:SCCF:11:1,2015-03-07T02:00:00Z,26.4679,-82.0631,1.58,31.44,1111122 
SCCF RECON,ioos:station:SCCF:11:1,2015-03-07T03:00:00Z,26.4679,-82.0631,1.55,31.47,1111122 
SCCF RECON,ioos:station:SCCF:11:1,2015-03-07T04:00:00Z,26.4679,-82.0631,1.58,31.5,1111122 
SCCF RECON,ioos:station:SCCF:11:1,2015-03-07T05:00:00Z,26.4679,-82.0631,1.63,31.51,1111122 
SCCF RECON,ioos:station:SCCF:11:1,2015-03-07T06:00:00Z,26.4679,-82.0631,1.68,31.53,1111122 
SCCF RECON,ioos:station:SCCF:11:1,2015-03-07T07:00:00Z,26.4679,-82.0631,1.73,31.49,1111122 
SCCF RECON,ioos:station:SCCF:11:1,2015-03-07T08:00:00Z,26.4679,-82.0631,1.75,31.51,1111122 
SCCF RECON,ioos:station:SCCF:11:1,2015-03-07T09:00:00Z,26.4679,-82.0631,1.74,31.46,1111122 
SCCF RECON,ioos:station:SCCF:11:1,2015-03-07T10:00:00Z,26.4679,-82.0631,1.69,31.41,1111122 
SCCF RECON,ioos:station:SCCF:11:1,2015-03-07T11:00:00Z,26.4679,-82.0631,1.623,31.44,1111122 
SCCF RECON,ioos:station:SCCF:11:1,2015-03-07T12:00:00Z,26.4679,-82.0631,1.55,31.44,1111122 
SCCF RECON,ioos:station:SCCF:11:1,2015-03-07T13:00:00Z,26.4679,-82.0631,1.47,31.43,1111122 
SCCF RECON,ioos:station:SCCF:11:1,2015-03-07T14:00:00Z,26.4679,-82.0631,1.41,31.44,1111122 
SCCF RECON,ioos:station:SCCF:11:1,2015-03-07T15:00:00Z,26.4679,-82.0631,1.38,31.48,1111122 
SCCF RECON,ioos:station:SCCF:11:1,2015-03-07T16:00:00Z,26.4679,-82.0631,1.42,31.5,1111122 
SCCF RECON,ioos:station:SCCF:11:1,2015-03-07T17:00:00Z,26.4679,-82.0631,1.5,31.5,1111122 
SCCF RECON,ioos:station:SCCF:11:1,2015-03-07T18:00:00Z,26.4679,-82.0631,1.581,30.04,1111122 
SCCF RECON,ioos:station:SCCF:11:1,2015-03-07T19:00:00Z,26.4679,-82.0631,1.67,28.9,1111122 
SCCF RECON,ioos:station:SCCF:11:1,2015-03-07T20:00:00Z,26.4679,-82.0631,1.73,29.34,1111122 
SCCF RECON,ioos:station:SCCF:11:1,2015-03-07T21:00:00Z,26.4679,-82.0631,1.74,30.42,1111122 
SCCF RECON,ioos:station:SCCF:11:1,2015-03-07T22:00:00Z,26.4679,-82.0631,1.74,31.05,1111122 
SCCF RECON,ioos:station:SCCF:11:1,2015-03-07T23:00:00Z,26.4679,-82.0631,1.71,31.22,1111122 
SCCF RECON,ioos:station:SCCF:11:1,2015-03-08T00:00:00Z,26.4679,-82.0631,1.65,31.32,1111122 
SCCF RECON,ioos:station:SCCF:11:1,2015-03-08T01:00:00Z,26.4679,-82.0631,1.58,31.42,1111122 
SCCF RECON,ioos:station:SCCF:11:1,2015-03-08T02:00:00Z,26.4679,-82.0631,1.53,31.31,1111122 
SCCF RECON,ioos:station:SCCF:11:1,2015-03-08T03:00:00Z,26.4679,-82.0631,1.51,30.96,1111122 
SCCF RECON,ioos:station:SCCF:11:1,2015-03-08T04:00:00Z,26.4679,-82.0631,1.52,29.95,1111122 
SCCF RECON,ioos:station:SCCF:11:1,2015-03-08T05:00:00Z,26.4679,-82.0631,1.57,29.93,1111122 
SCCF RECON,ioos:station:SCCF:11:1,2015-03-08T06:00:00Z,26.4679,-82.0631,1.64,29.85,1111122 
SCCF RECON,ioos:station:SCCF:11:1,2015-03-08T07:00:00Z,26.4679,-82.0631,1.71,29.79,1111122 
SCCF RECON,ioos:station:SCCF:11:1,2015-03-08T08:00:00Z,26.4679,-82.0631,1.76,29.76,1111122 
SCCF RECON,ioos:station:SCCF:11:1,2015-03-08T09:00:00Z,26.4679,-82.0631,1.78,29.87,1111122 
SCCF RECON,ioos:station:SCCF:11:1,2015-03-08T10:00:00Z,26.4679,-82.0631,1.77,30.28,1111122 
SCCF RECON,ioos:station:SCCF:11:1,2015-03-08T11:00:00Z,26.4679,-82.0631,1.73,30.52,1111122 
SCCF RECON,ioos:station:SCCF:11:1,2015-03-08T12:00:00Z,26.4679,-82.0631,1.67,30.72,1111122 
SCCF RECON,ioos:station:SCCF:11:1,2015-03-08T13:00:00Z,26.4679,-82.0631,1.61,30.75,1111122 
SCCF RECON,ioos:station:SCCF:11:1,2015-03-08T14:00:00Z,26.4679,-82.0631,1.56,30.87,1111122 
SCCF RECON,ioos:station:SCCF:11:1,2015-03-08T15:00:00Z,26.4679,-82.0631,1.54,30.74,1111122 
SCCF RECON,ioos:station:SCCF:11:1,2015-03-08T16:00:00Z,26.4679,-82.0631,1.57,29.6,1111122 
SCCF RECON,ioos:station:SCCF:11:1,2015-03-08T17:00:00Z,26.4679,-82.0631,1.638,29.54,1111122 
SCCF RECON,ioos:station:SCCF:11:1,2015-03-08T18:00:00Z,26.4679,-82.0631,1.7,29.63,1111122 
SCCF RECON,ioos:station:SCCF:11:1,2015-03-08T19:00:00Z,26.4679,-82.0631,1.764,29.72,1111122 
SCCF RECON,ioos:station:SCCF:11:1,2015-03-08T20:00:00Z,26.4679,-82.0631,1.82,29.67,1111122 
SCCF RECON,ioos:station:SCCF:11:1,2015-03-08T21:00:00Z,26.4679,-82.0631,1.84,29.67,1111122 
SCCF RECON,ioos:station:SCCF:11:1,2015-03-08T22:00:00Z,26.4679,-82.0631,1.83,29.61,1111122 
SCCF RECON,ioos:station:SCCF:11:1,2015-03-08T23:00:00Z,26.4679,-82.0631,1.79,30.01,1111122 
SCCF RECON,ioos:station:SCCF:11:1,2015-03-09T00:00:00Z,26.4679,-82.0631,1.73,30.25,1111122 
SCCF RECON,ioos:station:SCCF:11:1,2015-03-09T01:00:00Z,26.4679,-82.0631,1.65,30.48,1111122 
SCCF RECON,ioos:station:SCCF:11:1,2015-03-09T02:00:00Z,26.4679,-82.0631,1.58,30.71,1111122 
SCCF RECON,ioos:station:SCCF:11:1,2015-03-09T03:00:00Z,26.4679,-82.0631,1.52,30.47,1111122 
SCCF RECON,ioos:station:SCCF:11:1,2015-03-09T04:00:00Z,26.4679,-82.0631,1.5,30.02,1111122 
SCCF RECON,ioos:station:SCCF:11:1,2015-03-09T05:00:00Z,26.4679,-82.0631,1.516,29.81,1111122 
SCCF RECON,ioos:station:SCCF:11:1,2015-03-09T06:00:00Z,26.4679,-82.0631,1.56,29.32,1111122 
SCCF RECON,ioos:station:SCCF:11:1,2015-03-09T07:00:00Z,26.4679,-82.0631,1.62,29.46,1111122 
SCCF RECON,ioos:station:SCCF:11:1,2015-03-09T08:00:00Z,26.4679,-82.0631,1.67,29.42,1111122 
SCCF RECON,ioos:station:SCCF:11:1,2015-03-09T09:00:00Z,26.4679,-82.0631,1.72,29.63,1111122 
SCCF RECON,ioos:station:SCCF:11:1,2015-03-09T10:00:00Z,26.4679,-82.0631,1.74,29.47,1111122 
SCCF RECON,ioos:station:SCCF:11:1,2015-03-09T11:00:00Z,26.4679,-82.0631,1.73,29.77,1111122 
SCCF RECON,ioos:station:SCCF:11:1,2015-03-09T12:00:00Z,26.4679,-82.0631,1.7,29.99,1111122 
SCCF RECON,ioos:station:SCCF:11:1,2015-03-09T13:00:00Z,26.4679,-82.0631,1.66,30.18,1111122 
SCCF RECON,ioos:station:SCCF:11:1,2015-03-09T14:00:00Z,26.4679,-82.0631,1.63,30.3,1111122 
SCCF RECON,ioos:station:SCCF:11:1,2015-03-09T15:00:00Z,26.4679,-82.0631,1.61,30.21,1111122 
SCCF RECON,ioos:station:SCCF:11:1,2015-03-09T16:00:00Z,26.4679,-82.0631,1.64,29.73,1111122 
SCCF RECON,ioos:station:SCCF:11:1,2015-03-09T17:00:00Z,26.4679,-82.0631,1.7,29.76,1111122 
SCCF RECON,ioos:station:SCCF:11:1,2015-03-09T18:00:00Z,26.4679,-82.0631,1.76,29.98,1111122 
SCCF RECON,ioos:station:SCCF:11:1,2015-03-09T19:00:00Z,26.4679,-82.0631,1.82,30.84,1111122 
SCCF RECON,ioos:station:SCCF:11:1,2015-03-09T20:00:00Z,26.4679,-82.0631,1.88,31.13,1111122 
SCCF RECON,ioos:station:SCCF:11:1,2015-03-09T21:00:00Z,26.4679,-82.0631,1.918,31.71,1111122 
SCCF RECON,ioos:station:SCCF:11:1,2015-03-09T22:00:00Z,26.4679,-82.0631,1.97,30.11,1111122 
SCCF RECON,ioos:station:SCCF:11:1,2015-03-09T23:00:00Z,26.4679,-82.0631,1.96,30.03,1111122 
SCCF RECON,ioos:station:SCCF:11:1,2015-03-10T00:00:00Z,26.4679,-82.0631,1.9,30.17,1111122 
SCCF RECON,ioos:station:SCCF:11:1,2015-03-10T01:00:00Z,26.4679,-82.0631,1.82,30.23,1111122 
SCCF RECON,ioos:station:SCCF:11:1,2015-03-10T02:00:00Z,26.4679,-82.0631,1.74,30.29,1111122 
SCCF RECON,ioos:station:SCCF:11:1,2015-03-10T03:00:00Z,26.4679,-82.0631,1.67,30.33,1111122 
SCCF RECON,ioos:station:SCCF:11:1,2015-03-10T04:00:00Z,26.4679,-82.0631,1.62,30.3,1111122 
SCCF RECON,ioos:station:SCCF:11:1,2015-03-10T05:00:00Z,26.4679,-82.0631,1.59,30.92,1111122 
SCCF RECON,ioos:station:SCCF:11:1,2015-03-10T06:00:00Z,26.4679,-82.0631,1.62,30.61,1111122 
SCCF RECON,ioos:station:SCCF:11:1,2015-03-10T07:00:00Z,26.4679,-82.0631,1.66,30.48,1111122 
SCCF RECON,ioos:station:SCCF:11:1,2015-03-10T08:00:00Z,26.4679,-82.0631,1.71,30.81,1111122 
SCCF RECON,ioos:station:SCCF:11:1,2015-03-10T09:00:00Z,26.4679,-82.0631,1.77,30.94,1111122 
SCCF RECON,ioos:station:SCCF:11:1,2015-03-10T10:00:00Z,26.4679,-82.0631,1.79,30.33,1111122 
SCCF RECON,ioos:station:SCCF:11:1,2015-03-10T11:00:00Z,26.4679,-82.0631,1.8,30.28,1111122 
SCCF RECON,ioos:station:SCCF:11:1,2015-03-10T12:00:00Z,26.4679,-82.0631,1.78,30.39,1111122 
SCCF RECON,ioos:station:SCCF:11:1,2015-03-10T13:00:00Z,26.4679,-82.0631,1.75,30.42,1111122 
SCCF RECON,ioos:station:SCCF:11:1,2015-03-10T14:00:00Z,26.4679,-82.0631,1.73,30.46,1111122 
SCCF RECON,ioos:station:SCCF:11:1,2015-03-10T15:00:00Z,26.4679,-82.0631,1.7,30.45,1111122 
SCCF RECON,ioos:station:SCCF:11:1,2015-03-10T16:00:00Z,26.4679,-82.0631,1.7,31.08,1111122 
SCCF RECON,ioos:station:SCCF:11:1,2015-03-10T17:00:00Z,26.4679,-82.0631,1.73,31.51,1111122 
SCCF RECON,ioos:station:SCCF:11:1,2015-03-10T18:00:00Z,26.4679,-82.0631,1.78,31.61,1111122 
SCCF RECON,ioos:station:SCCF:11:1,2015-03-10T19:00:00Z,26.4679,-82.0631,1.83,31.86,1111122 
SCCF RECON,ioos:station:SCCF:11:1,2015-03-10T20:00:00Z,26.4679,-82.0631,1.88,32.2,1111122 
SCCF RECON,ioos:station:SCCF:11:1,2015-03-10T21:00:00Z,26.4679,-82.0631,1.93,32.1,1111122 
SCCF RECON,ioos:station:SCCF:11:1,2015-03-10T22:00:00Z,26.4679,-82.0631,1.96,31.9,1111122 
SCCF RECON,ioos:station:SCCF:11:1,2015-03-10T23:00:00Z,26.4679,-82.0631,2.0,30.97,1111122 
SCCF RECON,ioos:station:SCCF:11:1,2015-03-11T00:00:00Z,26.4679,-82.0631,1.95,30.88,1111122 
SCCF RECON,ioos:station:SCCF:11:1,2015-03-11T01:00:00Z,26.4679,-82.0631,1.88,30.99,1111122 
SCCF RECON,ioos:station:SCCF:11:1,2015-03-11T02:00:00Z,26.4679,-82.0631,1.796,31.0,1111122 
SCCF RECON,ioos:station:SCCF:11:1,2015-03-11T03:00:00Z,26.4679,-82.0631,1.71,31.02,1111122 
SCCF RECON,ioos:station:SCCF:11:1,2015-03-11T04:00:00Z,26.4679,-82.0631,1.65,31.05,1111122 
SCCF RECON,ioos:station:SCCF:11:1,2015-03-11T05:00:00Z,26.4679,-82.0631,1.6,31.68,1111122 
SCCF RECON,ioos:station:SCCF:11:1,2015-03-11T06:00:00Z,26.4679,-82.0631,1.61,31.49,1111122 
SCCF RECON,ioos:station:SCCF:11:1,2015-03-11T07:00:00Z,26.4679,-82.0631,1.635,30.97,1111122 
SCCF RECON,ioos:station:SCCF:11:1,2015-03-11T08:00:00Z,26.4679,-82.0631,1.66,30.93,1111122 
SCCF RECON,ioos:station:SCCF:11:1,2015-03-11T09:00:00Z,26.4679,-82.0631,1.71,31.42,1111122 
SCCF RECON,ioos:station:SCCF:11:1,2015-03-11T10:00:00Z,26.4679,-82.0631,1.744,31.83,1111122 
SCCF RECON,ioos:station:SCCF:11:1,2015-03-11T11:00:00Z,26.4679,-82.0631,1.77,31.84,1111122 
SCCF RECON,ioos:station:SCCF:11:1,2015-03-11T12:00:00Z,26.4679,-82.0631,1.787,31.09,1111122 
SCCF RECON,ioos:station:SCCF:11:1,2015-03-11T13:00:00Z,26.4679,-82.0631,1.78,31.04,1111122 
SCCF RECON,ioos:station:SCCF:11:1,2015-03-11T14:00:00Z,26.4679,-82.0631,1.76,31.12,1111122 
SCCF RECON,ioos:station:SCCF:11:1,2015-03-11T15:00:00Z,26.4679,-82.0631,1.74,31.14,1111122 
SCCF RECON,ioos:station:SCCF:11:1,2015-03-11T16:00:00Z,26.4679,-82.0631,1.73,31.93,1111122 
SCCF RECON,ioos:station:SCCF:11:1,2015-03-11T17:00:00Z,26.4679,-82.0631,1.73,32.26,1111122 
SCCF RECON,ioos:station:SCCF:11:1,2015-03-11T18:00:00Z,26.4679,-82.0631,1.76,32.35,1111122 
SCCF RECON,ioos:station:SCCF:11:1,2015-03-11T19:00:00Z,26.4679,-82.0631,1.81,32.42,1111122 